www.pogodaiklimat.ru

Погода и климат >> Архив погоды >> Мексика >> Ла-Пас


ПОГОДА в Ла-Пасе

  • Прогноз погоды в Ла-Пасе
  • Монитор погоды в Ла-Пасе

АРХИВ ПОГОДЫ в Ла-Пасе

Время (UTC), дата Ветер
(напр.,м/с)
 
Видим.   Явления Облачность Т
(С)
Тd
(С)
f
(%)
Тe
(С)
Тes
(С)
Комфортность P
(гПа)
Po
(гПа)
Тmin
(С)
Tmax
(С)
R
(мм)
R24
(мм)
S
(см)
06 14.03 Ю 1 2000 м 3/0
[Ac trans Cs]
+18.0 +12.7 71 +19 +19 1015.4 1013.3 +24.8
09 14.03 В 1 2000 м 3/0 2000 м
[As trans]
+16.0 +12.5 80 +17 +17 1014.9 1012.8
12 14.03 штиль 0 2000 м ясно +13.5 +11.2 86 +13 +13 1014.5 1012.4 +12.8 +24.8
15 14.03 С 2 20 км 1/1 1200 м
[Sc diur, vesp]
+17.8 +13.2 74 +18 +21 1015.9 1013.7
18 14.03 С 3 30 км 1/1 1200 м
[Sc diur, vesp]
+22.4 +11.9 51 +25 +37 комфорт 1016.2 1014.1 +12.4 +23.0
21 14.03 С 4 30 км 1/1 1200 м
[Sc diur, vesp]
+23.8 +13.4 52 +26 +35 жарко 1015.0 1012.9
00 15.03 С 5 30 км ясно +23.2 +9.8 43 +25 +26 комфорт 1014.9 1012.7 +12.4 +24.7
03 15.03 СВ 4 2000 м ясно +19.6 +9.8 53 +21 +21 комфорт 1015.0 1012.9
06 15.03 СВ 3 2000 м ясно +18.8 +10.2 57 +20 +20 1015.4 1013.3 +24.7
09 15.03 СВ 2 2000 м ясно +17.7 +9.9 60 +18 +18 1014.0 1011.9
12 15.03 С 3 2000 м 6/0
[Cs]
+17.2 +10.5 65 +17 +17 1013.5 1011.3 +16.4 +24.7
15 15.03 С 4 20 км 5/0 2000 м
[Ac trans]
+18.0 +11.2 64 +18 +19 1014.9 1012.8
18 15.03 С 4 30 км 3/0
[Cs]
+21.9 +10.0 47 +24 +34 комфорт 1015.5 1013.3 +16.2 +22.4
21 15.03 С 5 30 км 1/0
[Cs]
+23.5 +9.8 42 +25 +32 комфорт 1013.8 1011.7
00 16.03 С 3 30 км 5/0
[Ci]
+23.2 +9.4 41 +25 +26 комфорт 1012.8 1010.7 +16.2 +24.3
03 16.03 СВ 2 2000 м 9/0 2000 м
[As trans Cs]
+19.2 +12.1 63 +21 +21 комфорт 1013.8 1011.7
06 16.03 В 2 2000 м 5/0 2000 м
[As trans]
+18.2 +12.9 71 +19 +19 1015.1 1012.9 +16.2 +24.3
12 16.03 Ю 1 2000 м 8/0 2000 м
[As op]
+15.4 +12.7 84 +16 +16 1014.5 1012.3 +14.8 +24.3
15 16.03 штиль 0 20 км 8/0
[Ci]
+18.1 +12.1 68 +18 +22 1016.2 1014.1
18 16.03 С 2 30 км 8/0 2000 м
[As trans]
+22.4 +11.1 49 +25 +33 комфорт 1016.6 1014.4 +14.4 +23.0
21 16.03 С 3 30 км 6/0
[Cc]
+23.9 +10.5 43 +25 +36 комфорт 1015.3 1013.2
00 17.03 С 3 25 км 10/0 2000 м
[Ac und Cs]
+24.3 +10.0 40 +25 +26 комфорт 1013.9 1011.8 +14.4 +25.3
03 17.03 СЗ 2 2000 м 9/0 2000 м
[As trans]
+21.0 +12.9 60 +24 +24 комфорт 1014.6 1012.5
09 17.03 Ю 1 2000 м 8/0 2000 м
[As op]
+19.6 +13.1 66 +22 +22 комфорт 1015.1 1013.0
12 17.03 штиль 0 2000 м 8/0 2000 м
[As op]
+19.2 +12.6 66 +20 +20 1014.4 1012.3 +18.4 +25.3
15 17.03 ЮВ 1 20 км 9/4 1200 м
[Sc diur, vesp As op]
+18.4 +12.8 70 +20 +21 1015.7 1013.6
18 17.03 ЮЗ 1 25 км 9/1 1200 м
[Sc diur, vesp Ac und]
+22.9 +12.5 52 +26 +32 жарко 1016.5 1014.3 +17.0 +23.4
21 17.03 С 2 25 км 9/3 1200 м
[Sc diur, vesp As op]
+23.0 +14.0 57 +26 +30 жарко 1014.7 1012.6
00 18.03 З 2 25 км 8/1 1200 м
[Sc As op]
+25.0 +7.8 33 +25 +26 комфорт 1013.2 1011.1 +17.0 +25.3
03 18.03 Ю 1 2000 м ясно +21.6 +12.8 57 +24 +24 комфорт 1014.6 1012.5
06 18.03 ЮВ 1 2000 м ясно +18.4 +12.4 68 +20 +20 1015.7 1013.6 +17.0 +25.3
12 18.03 Ю 1 2000 м ясно +14.4 +10.2 76 +15 +15 1013.3 1011.2 +14.2 +25.3
15 18.03 Ю 1 20 км ясно +17.8 +7.0 49 +19 +23 1015.2 1013.1
18 18.03 С 1 30 км ясно +25.6 +10.9 40 +27 +46 жарко 1015.2 1013.0 +11.6 +26.0
21 18.03 С 3 30 км ясно +27.6 +9.6 32 +28 +41 жарко 1013.4 1011.2
00 19.03 С 2 30 км ясно +28.6 +7.2 26 +28 +30 жарко 1012.8 1010.7 +11.6 +29.0
03 19.03 Ю 1 2000 м ясно +22.0 +14.2 61 +25 +25 комфорт 1014.8 1012.7
06 19.03 Ю 3 2000 м ясно +18.7 +12.8 69 +20 +20 1015.5 1013.5 +29.0
09 19.03 ЮВ 1 2000 м ясно +17.3 +10.8 66 +18 +18 1014.9 1012.8
12 19.03 Ю 2 2000 м ясно +13.6 +8.7 72 +13 +13 1013.7 1011.6 +13.4 +29.0
15 19.03 Ю 1 20 км ясно +16.6 +6.8 52 +18 +21 1015.5 1013.3
18 19.03 С 2 30 км ясно +28.1 +6.3 25 +27 +44 жарко 1015.2 1013.1 +12.4 +28.1
21 19.03 С 3 30 км ясно +28.4 +9.1 30 +28 +41 жарко 1014.3 1012.2
00 20.03 СЗ 2 30 км 1/0
[Cs]
+30.2 +7.2 24 +29 +31 жарко 1012.4 1010.3 +12.4 +31.0
03 20.03 Ю 2 2000 м 1/0
[Ci fib]
+23.6 +14.1 55 +26 +26 жарко 1014.1 1012.0
06 20.03 Ю 3 2000 м 1/0
[Ci fib]
+20.7 +13.8 65 +24 +24 комфорт 1015.6 1013.5 +31.0
09 20.03 Ю 3 2000 м 4/0
[Ci fib]
+17.9 +13.7 76 +18 +18 1015.5 1013.4
12 20.03 Ю 3 2000 м 1/0
[Ci fib]
+16.4 +13.8 85 +16 +16 1014.7 1012.6 +16.1 +31.0
15 20.03 Ю 2 20 км ясно +20.3 +7.8 44 +22 +25 комфорт 1015.9 1013.8
18 20.03 С 1 30 км ясно +28.4 +2.3 19 +26 +46 жарко 1016.0 1013.9 +15.0 +28.9
21 20.03 С 2 30 км ясно +31.1 +4.6 19 +29 +45 жарко 1014.8 1012.7
00 21.03 С 2 30 км ясно +31.4 +4.8 19 +29 +32 жарко 1014.1 1012.0 +15.0 +32.0

 

Местоположение метеостанции Ла-Пас (Мексика): широта 24.17 долгота -110.30 высота над уровнем моря 18 м.

В архиве по умолчанию представлена погода в Ла-Пасе за последнюю неделю. Архивные данные за месяц целиком и за предыдущие месяцы, начиная с января 2011 года, Вы можете получить, выбрав интересующий диапазон дат из раскрывающегося списка и нажав кнопку "Ввод!".


*Определитесь, кто Вы:
робот инопланетянин человек

Внимание! Время в таблицах - всемирное. Для получения местного времени необходимо прибавить поправку, которая равна -6 ч.

Смотрите также архив погоды в соседних городах и на ближайших метеорологических станциях:

Погода в Сьюдад-Конститусьоне (Мексика) (166 км)
Погода в Лорето (Мексика) (229 км)
Погода в Кульякане (Мексика) (302 км)
Погода в Чойсе (Мексика) (354 км)
Погода в Сьюдад-Обрегоне (Мексика) (361 км)
Погода в Санта-Розалии (Мексика) (397 км)
Погода в Мазатлане (Мексика) (412 км)
Погода в Гуаймасе (Мексика) (421 км)
Погода в Эмпальме (Мексика) (422 км)
Погода в Тепеуанесе (Мексика) (481 км)

Пояснения к столбцам:

Ветер - указаны скорость ветра в м/с - средняя за 10 мин, порывы в срок и между сроками (в фигурных скобках) и направление, откуда дует ветер: С - северный, СВ - северо-восточный, В - восточный, ЮВ - юго-восточный, Ю - южный, ЮЗ - юго-западный, З - западный, СЗ - северо-западный.
Видимость - горизонтальная дальность видимости в метрах или километрах. При видимости от 1 до 10 км при отсутствии осадков обычно наблюдается дымка, при ухудшении видимости до 1 км и менее - туман. В сухую погоду видимость может ухудшаться дымом, пылью или мглою.
Явления - указаны атмосферные явления, наблюдавшиеся в срок или в последний час перед сроком; фигурными скобками обозначены явления, наблюдавшиеся между сроками (за 1-3 часа до срока); квадратными скобками обозначены град или гололедные отложения с указанием их диаметра в мм.
Облачность - указаны через наклонную черту общая и нижняя облачность в баллах и высота нижней границы облаков в метрах; квадратными скобками обозначены формы облаков: Ci - перистые, Cs - перисто-слоистые, Cc - перисто-кучевые, Ac - высококучевые, As - высокослоистые, Sc - слоисто-кучевые, Ns - слоисто-дождевые, Cu - кучевые, Cb - кучево-дождевые. Подробнее классификацию облаков см. в Атласе облаков (PDF).
T - Температура воздуха - температура, измеренная на высоте 2 м над землей.
Td - Температура точки росы - температура, при понижении до которой содержащийся в воздухе водяной пар достигнет насыщения.
f - Относительная влажность воздуха - влажноcть воздуха, измеренная на высоте 2 м над землей.
Te - Эффективная температура - температура, которую ощущает одетый по сезону человек в тени. Характеристика душности погоды. При расчете учитывается влияние влажности воздуха и скорости ветра на теплоощущения человека.
Tes - Эффективная температура на солнце - температура, которую ощущает человек, с поправкой на солнечный нагрев. Характеристика знойности погоды. Зависит от высоты солнца над горизонтом, облачности и скорости ветра. Ночью, в пасмурную погоду, а также при ветре 12 м/с и более поправка равна нулю.
P - Атмосферное давление - приведенное к уровню моря атмосферное давление.
Po - Атмосферное давление - измеренное на уровне метеостанции атмосферное давление.
Tmin - Минимальная температура - минимум температуры воздуха на высоте 2 м над землей.
Tmax - Максимальная температура - максимум температуры воздуха на высоте 2 м над землей.
R - Количество осадков - Количество выпавших осадков за период времени, мм. При наведении курсора мыши на число - период времени, за который выпало указанное количество осадков.
R24 - Количество осадков - Количество выпавших осадков за 24 часа, мм.
S - Снежный покров - Высота снежного покрова, см. При наведении курсора мыши на число - состояние снежного покрова и степень покрытия местности в баллах.